Weather reports worldwide

Advertisment
Huelva, Spain (8383): temperature & dewpoint: 11.08.2019 15:00:00 - 17.08.2019 15:00:00 (CEST)Huelva, Spain (8383): wind speed: 11.08.2019 15:00:00 - 17.08.2019 15:00:00 (CEST)Huelva, Spain (8383): wind direction: 11.08.2019 15:00:00 - 17.08.2019 15:00:00 (CEST)Huelva, Spain (8383): reduced air pressure: 11.08.2019 15:00:00 - 17.08.2019 15:00:00 (CEST)Huelva, Spain (8383): visibility: 11.08.2019 15:00:00 - 17.08.2019 15:00:00 (CEST)Huelva, Spain (8383): precipitation: 11.08.2019 15:00:00 - 17.08.2019 15:00:00 (CEST)
Date & Time tt [°C] td [°C] ff [km/h] ff [kn] dd ppp [hPa] vv [km] rr [mm]
17.08.2019 15:00:00 - - - - - - - -
17.08.2019 14:00:00 - - - - - - - -
17.08.2019 13:00:00 - - - - - - - -
17.08.2019 12:00:00 - - - - - - - -
17.08.2019 11:00:00 - - - - - - - -
17.08.2019 10:00:00 - - - - - - - -
17.08.2019 09:00:00 - - - - - - - -
17.08.2019 08:00:00 - - - - - - - -
17.08.2019 07:00:00 - - - - - - - -
17.08.2019 06:00:00 - - - - - - - -
17.08.2019 05:00:00 - - - - - - - -
17.08.2019 04:00:00 - - - - - - - -
17.08.2019 03:00:00 - - - - - - - -
17.08.2019 02:00:00 - - - - - - - -
17.08.2019 01:00:00 22,8 15,1 2 1 S 1015,5 20 0,0
17.08.2019 00:00:00 23,5 15,5 8 4 S 1015,5 20 0,0
16.08.2019 23:00:00 25,2 15,5 4 2 S 1015,5 20 -
16.08.2019 22:00:00 27,2 13,9 13 7 SW 1014,9 20 0,0
16.08.2019 21:00:00 28,9 13,2 13 7 SW 1014,7 20 0,0
16.08.2019 20:00:00 29,5 13,7 18 10 WSW 1014,6 20 -
16.08.2019 19:00:00 30,8 14,0 21 11 SW 1014,6 20 0,0
16.08.2019 18:00:00 31,2 15,2 22 12 SW 1014,9 20 0,0
16.08.2019 17:00:00 31,6 14,7 24 13 SW 1015,5 20 -
16.08.2019 16:00:00 33,0 15,9 22 12 S 1015,5 20 0,0
16.08.2019 15:00:00 33,8 14,8 18 10 S 1015,9 20 0,0
16.08.2019 14:00:00 34,6 15,5 15 8 SSW 1016,1 20 -
16.08.2019 13:00:00 33,1 16,0 8 4 S 1016,5 20 0,0
16.08.2019 12:00:00 31,0 15,8 5 3 WSW 1016,8 20 0,0
16.08.2019 11:00:00 28,1 15,4 5 3 NW 1016,7 20 -
16.08.2019 10:00:00 25,1 15,1 8 4 NW 1016,8 20 0,0
16.08.2019 09:00:00 23,6 14,9 5 3 N 1016,6 20 0,0
16.08.2019 08:00:00 22,8 15,1 9 5 WNW 1016,2 20 -
16.08.2019 07:00:00 23,7 14,9 11 6 WNW 1015,6 20 0,0
16.08.2019 06:00:00 23,8 14,2 2 1 WNW 1015,5 20 0,0
16.08.2019 05:00:00 23,1 14,1 5 3 WNW 1015,6 20 -
16.08.2019 04:00:00 22,0 13,1 2 1 E 1015,6 20 0,0
16.08.2019 03:00:00 23,0 14,3 4 2 ENE 1015,8 20 0,0
16.08.2019 02:00:00 23,6 15,1 4 2 N 1016,0 20 -
16.08.2019 01:00:00 24,2 15,7 2 1 SSE 1015,9 20 0,0
16.08.2019 00:00:00 27,0 14,7 9 5 SSW 1015,7 20 0,0
15.08.2019 23:00:00 29,1 11,2 18 10 WSW 1015,7 20 -
15.08.2019 22:00:00 29,2 11,7 16 9 WSW 1015,3 20 0,0
15.08.2019 21:00:00 30,5 12,4 13 7 WSW 1015,0 20 0,0
15.08.2019 20:00:00 30,8 14,0 21 11 WSW 1015,0 20 -
15.08.2019 19:00:00 31,7 15,2 18 10 SW 1015,2 20 0,0
15.08.2019 18:00:00 31,4 15,0 24 13 SW 1015,3 20 0,0
15.08.2019 17:00:00 32,8 16,2 21 11 WSW 1015,8 20 -
15.08.2019 16:00:00 33,6 16,0 18 10 SW 1016,2 20 0,0
15.08.2019 15:00:00 33,5 15,5 16 9 SW 1016,5 20 0,0
15.08.2019 14:00:00 32,1 17,6 16 9 SSW 1017,0 20 -
15.08.2019 13:00:00 32,6 16,8 16 9 S 1017,2 20 0,0
15.08.2019 12:00:00 31,2 15,6 9 5 S 1017,4 20 0,0
15.08.2019 11:00:00 28,3 15,6 4 2 NE 1017,3 20 -
15.08.2019 10:00:00 24,9 16,1 5 3 N 1017,4 20 0,0
15.08.2019 09:00:00 22,3 14,7 4 2 NE 1017,3 20 0,0
15.08.2019 08:00:00 20,2 14,6 5 3 NNE 1017,1 20 -
15.08.2019 07:00:00 20,7 15,5 9 5 N 1016,6 20 0,0
15.08.2019 06:00:00 20,4 14,1 5 3 NE 1016,5 20 0,0
15.08.2019 05:00:00 21,6 14,0 8 4 NE 1016,3 20 -
15.08.2019 04:00:00 24,1 13,3 4 2 NE 1016,0 20 0,0
15.08.2019 03:00:00 26,2 13,0 8 4 WNW 1016,0 20 0,0
15.08.2019 02:00:00 26,6 12,3 9 5 NW 1016,2 20 -
15.08.2019 01:00:00 25,0 15,6 4 2 WNW 1016,3 20 0,0
15.08.2019 00:00:00 23,5 16,8 2 1 ESE 1016,4 20 0,0
14.08.2019 23:00:00 24,2 17,0 4 2 SSE 1016,2 20 -
14.08.2019 22:00:00 26,1 17,7 9 5 S 1015,7 20 0,0
14.08.2019 21:00:00 29,6 17,1 8 4 SW 1015,4 20 0,0
14.08.2019 20:00:00 30,4 17,1 22 12 WSW 1015,3 20 -
14.08.2019 19:00:00 31,4 18,0 21 11 SW 1015,7 20 0,0
14.08.2019 18:00:00 32,2 17,3 24 13 SW 1016,0 20 0,0
14.08.2019 17:00:00 33,2 17,4 22 12 SW 1016,3 20 -
14.08.2019 16:00:00 33,8 17,1 21 11 WSW 1016,8 20 0,0
14.08.2019 15:00:00 34,2 17,4 16 9 WSW 1017,4 20 0,0
14.08.2019 14:00:00 33,2 14,8 13 7 W 1018,1 20 -
14.08.2019 13:00:00 31,7 16,0 5 3 NE 1018,7 20 0,0
14.08.2019 12:00:00 29,3 15,8 4 2 WSW 1018,9 20 0,0
14.08.2019 11:00:00 26,5 10,2 8 4 WNW 1018,8 20 -
14.08.2019 10:00:00 22,6 9,0 4 2 N 1018,8 19 0,0
14.08.2019 09:00:00 19,7 9,0 8 4 N 1018,6 20 0,0
14.08.2019 08:00:00 17,6 5,8 4 2 NNW 1018,0 20 -
14.08.2019 07:00:00 16,9 5,8 4 2 N 1017,7 20 0,0
14.08.2019 06:00:00 18,1 6,3 8 4 N 1017,5 20 0,0
14.08.2019 05:00:00 18,2 7,0 4 2 NE 1017,3 20 -
14.08.2019 04:00:00 19,0 7,1 4 2 NNE 1017,2 20 0,0
14.08.2019 03:00:00 20,2 8,5 5 3 NE 1017,1 20 0,0
14.08.2019 02:00:00 23,7 8,5 5 3 NNE 1016,9 20 -
14.08.2019 01:00:00 23,3 8,9 2 1 SW 1016,9 20 0,0
14.08.2019 00:00:00 24,8 9,5 4 2 S 1016,5 20 0,0
13.08.2019 23:00:00 26,2 7,7 16 9 W 1016,3 20 -
13.08.2019 22:00:00 26,4 7,9 11 6 WSW 1015,8 20 0,0
13.08.2019 21:00:00 27,8 6,5 16 9 WSW 1015,4 20 0,0
13.08.2019 20:00:00 28,8 6,8 21 11 WSW 1015,3 20 -
13.08.2019 19:00:00 29,1 9,8 22 12 WSW 1015,2 20 0,0
13.08.2019 18:00:00 32,6 8,8 18 10 SW 1015,3 20 0,0
13.08.2019 17:00:00 33,2 8,6 18 10 SSW 1015,6 20 -
13.08.2019 16:00:00 32,5 10,5 21 11 SSW 1016,1 20 0,0
13.08.2019 15:00:00 32,7 4,5 21 11 S 1016,6 20 0,0
13.08.2019 14:00:00 32,5 5,9 22 12 S 1016,9 20 -
13.08.2019 13:00:00 32,7 4,5 5 3 WNW 1017,2 20 0,0
13.08.2019 12:00:00 30,0 7,8 5 3 N 1017,4 20 0,0
13.08.2019 11:00:00 25,7 9,5 9 5 NW 1017,2 20 -
13.08.2019 10:00:00 22,2 10,3 8 4 N 1016,9 20 0,0
13.08.2019 09:00:00 19,3 10,3 9 5 N 1016,7 20 0,0
13.08.2019 08:00:00 18,2 10,1 8 4 WNW 1016,2 20 -
13.08.2019 07:00:00 18,9 9,9 11 6 WNW 1015,7 20 0,0
13.08.2019 06:00:00 19,8 10,2 11 6 NW 1015,6 20 0,0
13.08.2019 05:00:00 20,7 10,2 15 8 NW 1015,5 20 -
13.08.2019 04:00:00 21,7 9,9 15 8 NW 1015,6 20 0,0
13.08.2019 03:00:00 23,5 6,3 11 6 WNW 1015,9 20 0,0
13.08.2019 02:00:00 24,4 2,5 15 8 NW 1016,4 20 -
13.08.2019 01:00:00 27,4 1,0 8 4 NW 1016,0 20 0,0
13.08.2019 00:00:00 28,3 0,9 11 6 N 1016,1 20 0,0
12.08.2019 23:00:00 28,4 1,0 5 3 NW 1015,9 20 -
12.08.2019 22:00:00 29,1 0,7 13 7 WNW 1015,0 20 0,0
12.08.2019 21:00:00 31,4 0,7 9 5 N 1014,3 20 0,0
12.08.2019 20:00:00 33,2 0,0 15 8 NNW 1013,7 20 -
12.08.2019 19:00:00 34,6 -0,2 9 5 N 1013,5 20 0,0
12.08.2019 18:00:00 34,6 -0,2 13 7 N 1013,8 20 0,0
12.08.2019 17:00:00 34,3 0,8 9 5 N 1014,4 20 -
12.08.2019 16:00:00 33,3 1,1 9 5 NNE 1015,3 20 0,0
12.08.2019 15:00:00 32,4 1,5 11 6 N 1016,2 20 0,0
12.08.2019 14:00:00 30,9 2,1 13 7 N 1016,9 20 -
12.08.2019 13:00:00 29,7 5,0 11 6 NE 1017,4 20 0,0
12.08.2019 12:00:00 26,3 7,8 11 6 N 1017,8 20 0,0
12.08.2019 11:00:00 23,3 9,3 13 7 N 1018,0 20 -
12.08.2019 10:00:00 20,4 9,9 13 7 N 1018,0 20 0,0
12.08.2019 09:00:00 17,7 10,6 13 7 N 1017,9 20 0,0
12.08.2019 08:00:00 16,8 10,4 5 3 NW 1017,5 20 -
12.08.2019 07:00:00 17,8 10,4 13 7 N 1017,4 20 0,0
12.08.2019 06:00:00 18,5 10,6 9 5 NNE 1017,5 20 0,0
12.08.2019 05:00:00 19,6 10,6 11 6 N 1017,6 20 -
12.08.2019 04:00:00 20,3 10,1 11 6 N 1017,6 20 0,0
12.08.2019 03:00:00 21,3 9,8 13 7 N 1018,0 20 0,0
12.08.2019 02:00:00 22,5 8,6 9 5 NNW 1018,3 20 -
12.08.2019 01:00:00 23,7 7,7 8 4 N 1018,4 20 0,0
12.08.2019 00:00:00 24,5 7,2 9 5 WNW 1018,5 20 0,0
11.08.2019 23:00:00 25,6 6,7 8 4 WNW 1017,9 20 -
11.08.2019 22:00:00 26,9 6,3 8 4 N 1017,1 20 0,0
11.08.2019 21:00:00 27,6 5,8 18 10 N 1016,6 20 0,0
11.08.2019 20:00:00 29,1 7,1 15 8 NW 1016,4 20 -
11.08.2019 19:00:00 30,6 5,8 16 9 NW 1016,3 20 0,0
11.08.2019 18:00:00 30,9 6,7 21 11 N 1016,5 20 0,0
11.08.2019 17:00:00 30,2 6,1 16 9 NNW 1017,0 20 -
11.08.2019 16:00:00 30,7 5,2 18 10 NNW 1017,6 20 0,0
11.08.2019 15:00:00 30,2 4,7 18 10 NW 1018,3 20 0,0

tt = temperature
td = dewpoint
ff = wind speed
dd = wind direction
ppp = reduced air pressure
vv = visibility
rr = precipitation

Next stations